Weather History for Saint Simons Island, GA

Change the Weather History Date:

Monday, March 31, 2014

  Actual Average Record
Temperature  
Mean Temperature 58 °F 63 °F  
Max Temperature 69 °F 72 °F 89 °F (1954)
Min Temperature 46 °F 55 °F 30 °F (1964)
Degree Days  
Heating Degree Days 7 3  
Month to date heating degree days 228 177  
Since 1 July heating degree days 1456 1428  
Cooling Degree Days 0 2  
Month to date cooling degree days 14 31  
Year to date cooling degree days 22 40  
Growing Degree Days 7 (Base 50)    
Moisture  
Dew Point 41 °F    
Average Humidity 57    
Maximum Humidity 87    
Minimum Humidity 26    
Precipitation  
Precipitation 0.00 in 0.12 in 1.55 in (1962)
Month to date precipitation 2.54 3.88  
Year to date precipitation 9.02 10.57  
Snow  
Snow 0.00 in - 0.00 in ()
Month to date snowfall 0.0  
Since 1 July snowfall T  
Snow Depth 0.00 in    
Sea Level Pressure  
Sea Level Pressure 30.13 in    
Wind  
Wind Speed 6 mph (SSW)    
Max Wind Speed 14 mph    
Max Gust Speed 16 mph    
Visibility 10 miles    
Events      
T = Trace of Precipitation, MM = Missing Value Source: NWS Daily Summary

Daily Weather History Graph

Daily Weather History Graph

Search for Another Location

Airport:

Trip Planner

Search our weather history database for the weather conditions in past years. The results will help you decide how hot, cold, wet, or windy it might be!

Date:

Astronomy

Mar. 31, 2014 Rise Set
Actual Time 7:15 AM EDT 7:44 PM EDT
Civil Twilight 6:51 AM EDT 8:08 PM EDT
Nautical Twilight 6:22 AM EDT 8:37 PM EDT
Astronomical Twilight 5:53 AM EDT 9:06 PM EDT
Moon 7:42 AM EDT (3/31) 8:55 PM EDT (3/31)
Length of Visible Light 13h 17m
Length of Day
12h 28m
New Moon, 1% of the Moon is Illuminated
Mar 31
New Moon
Apr 7
First Quarter
Apr 15
Full
Apr 22
Last Quarter
Apr 29
New

Hourly Weather History & Observations

Time (EDT) Temp. Dew Point Humidity Pressure Visibility Wind Dir Wind Speed Gust Speed Precip Events Conditions
12:53 AM 53.1 °F 43.0 °F 69% 30.09 in 10.0 mi West 5.8 mph - N/A   Clear
1:53 AM 51.1 °F 42.1 °F 71% 30.09 in 10.0 mi West 4.6 mph - N/A   Clear
2:53 AM 51.1 °F 42.1 °F 71% 30.09 in 10.0 mi West 5.8 mph - N/A   Clear
3:53 AM 50.0 °F 42.1 °F 74% 30.09 in 10.0 mi West 5.8 mph - N/A   Clear
4:53 AM 46.9 °F 41.0 °F 80% 30.08 in 10.0 mi West 3.5 mph - N/A   Clear
5:53 AM 48.9 °F 39.0 °F 69% 30.09 in 10.0 mi West 4.6 mph - N/A   Clear
6:53 AM 48.0 °F 37.0 °F 66% 30.11 in 10.0 mi NNW 3.5 mph - N/A   Clear
7:53 AM 48.9 °F 36.0 °F 61% 30.13 in 10.0 mi NNW 4.6 mph - N/A   Clear
8:53 AM 55.0 °F 39.0 °F 55% 30.15 in 10.0 mi North 4.6 mph - N/A   Clear
9:53 AM 62.1 °F 37.9 °F 41% 30.17 in 10.0 mi NNW 3.5 mph - N/A   Clear
10:53 AM 64.0 °F 35.1 °F 34% 30.17 in 10.0 mi NNE 6.9 mph - N/A   Clear
11:53 AM 64.9 °F 39.9 °F 40% 30.18 in 10.0 mi East 6.9 mph - N/A   Clear
12:53 PM 66.9 °F 33.1 °F 28% 30.17 in 10.0 mi Variable 6.9 mph - N/A   Clear
1:53 PM 66.9 °F 33.1 °F 28% 30.15 in 10.0 mi ESE 6.9 mph - N/A   Clear
2:53 PM 68.0 °F 33.1 °F 27% 30.14 in 10.0 mi SE 10.4 mph - N/A   Clear
3:53 PM 66.9 °F 30.9 °F 26% 30.12 in 10.0 mi SE 10.4 mph - N/A   Clear
4:53 PM 66.0 °F 37.9 °F 36% 30.11 in 10.0 mi SE 11.5 mph - N/A   Clear
5:53 PM 66.0 °F 37.0 °F 34% 30.11 in 10.0 mi ESE 10.4 mph - N/A   Clear
6:53 PM 64.0 °F 44.1 °F 48% 30.11 in 10.0 mi SE 9.2 mph - N/A   Clear
7:53 PM 60.1 °F 46.0 °F 60% 30.10 in 10.0 mi SSE 5.8 mph - N/A   Clear
8:53 PM 59.0 °F 51.1 °F 75% 30.13 in 10.0 mi Calm Calm - N/A   Clear
9:53 PM 57.9 °F 52.0 °F 81% 30.14 in 10.0 mi Calm Calm - N/A   Clear
10:53 PM 59.0 °F 54.0 °F 83% 30.14 in 10.0 mi South 5.8 mph - N/A   Clear
11:53 PM 59.0 °F 55.0 °F 87% 30.15 in 10.0 mi South 4.6 mph - N/A   Clear